map of BBA home
BBA - Airport
Location
City:  Balmaceda, Aysén del General Carlos Ibáñez del Campo, Chile
ICAO:SCBA
IATA:BBA

Details
Type:Airport (Aerodrome, Airfield)
Use:Public/Civil
Latitude:45°54'58"S (-45.916057)
Longitude:71°41'22"W (-71.689474)
Datum:WGS 1984
Elevation:1722 ft (525 m)
Variation:9.78°E (WMM2015 magnetic declination)
-0.10° annual change
Runways:1
Longest:8205 × 148 ft (2501 × 45 m), paved

Time
Time Zone:UTC-4 (DST-3)
Local Time:

Weather
METAR:SCBA 191800Z 31027G38KT 9999 FEW100 SCT200 23/09 Q1009
TAF:SCBA 191633Z 1918/2018 30025G35KT 9999 FEW040 TX23/1919Z TN10/2010Z
BECMG 1922/1924 31025KT
BECMG 2004/2006 31015KT
BECMG 2013/2015 31025G35KT SCT035 BKN080

Related Locations
Nearby:
Farthest:MXW: 12341 mi / 19860 km
Mandalgovi (Mandalgobi) [Mandalgovi Airport], 059, MN

Find:

   beyond  
but within

Other Information
Maps:
NOTAMs:
Links:
Sources:

  
  • flag of Chile
  • flag of Aysén del General Carlos Ibáñez del Campo
  

Sectional Chart

Flight Planning
at skyvector.com

Satellite Image

Google Maps Satellite view

 

Copyright © 2004-2019 Karl L. Swartz. All rights reserved.
The Great Circle Mapper name and logo are trademarks of the Great Circle Mapper.
All other trademarks mentioned herein belong to their respective owners.
Please see credits for attibutions and further copyright information.

  Follow gcmap on Facebook Follow gcmap on Twitter Follow gcmap on Google+ GCmap on LinkedIn

hCard Microformat

Geo Microformat